When you browse on this site, cookies collect data to enhance your experience and personalize the content and advertising you see.
Visit our Privacy Policy to learn more. By continuing to use the site, you agree to this use of cookies and data.

Tiempo cada hora Aranda de Duero

Hoy, 3 Julio, Viernes

Tiempo Temperatura Precipitaciones Viento Presión Humedad
00:00 +13°C° 0 mm 3 mps 695 mmHg 84%
01:00 +12°C° 0 mm 3 mps 695 mmHg 82%
02:00 +12°C° 0 mm 3 mps 695 mmHg 81%
03:00 +12°C° 0 mm 3 mps 695 mmHg 79%
04:00 +12°C° 0 mm 3 mps 695 mmHg 79%
05:00 +13°C° 0 mm 2 mps 695 mmHg 78%
06:00 +13°C° 0 mm 2 mps 695 mmHg 77%
07:00 +15°C° 0 mm 2 mps 696 mmHg 71%
08:00 +17°C° 0 mm 2 mps 696 mmHg 64%
09:00 +19°C° 0 mm 2 mps 696 mmHg 57%
10:00 +20°C° 0 mm 2 mps 696 mmHg 50%
11:00 +23°C° 0 mm 2 mps 697 mmHg 44%
12:00 +24°C° 0 mm 2 mps 697 mmHg 37%
13:00 +25°C° 0 mm 3 mps 697 mmHg 35%
14:00 +26°C° 0 mm 3 mps 696 mmHg 32%
15:00 +27°C° 0 mm 3 mps 696 mmHg 29%
16:00 +26°C° 0 mm 4 mps 696 mmHg 32%
17:00 +25°C° 0 mm 4 mps 696 mmHg 34%
18:00 +23°C° 0 mm 5 mps 696 mmHg 37%
19:00 +21°C° 0 mm 4 mps 696 mmHg 48%
20:00 +18°C° 0 mm 4 mps 696 mmHg 59%
21:00 +16°C° 0 mm 3 mps 696 mmHg 70%
22:00 +15°C° 0 mm 2 mps 696 mmHg 72%
23:00 +15°C° 0 mm 2 mps 696 mmHg 74%

Mañana, 4 Julio, Sábado

Tiempo Temperatura Precipitaciones Viento Presión Humedad
00:00 +14°C° 0 mm 1 mps 696 mmHg 76%
01:00 +14°C° 0 mm 1 mps 696 mmHg 77%
02:00 +13°C° 0 mm 1 mps 696 mmHg 77%
03:00 +13°C° 0 mm 1 mps 696 mmHg 78%
04:00 +13°C° 0 mm 1 mps 696 mmHg 76%
05:00 +14°C° 0 mm 1 mps 696 mmHg 74%
06:00 +15°C° 0 mm 1 mps 697 mmHg 71%
07:00 +18°C° 0 mm 1 mps 697 mmHg 59%
08:00 +21°C° 0 mm 1 mps 697 mmHg 47%
09:00 +23°C° 0 mm 2 mps 698 mmHg 35%
10:00 +25°C° 0 mm 2 mps 698 mmHg 32%
11:00 +26°C° 0 mm 3 mps 698 mmHg 28%
12:00 +28°C° 0 mm 3 mps 698 mmHg 25%
13:00 +28°C° 0 mm 3 mps 698 mmHg 24%
14:00 +29°C° 0 mm 4 mps 698 mmHg 23%
15:00 +30°C° 0 mm 4 mps 698 mmHg 21%
16:00 +29°C° 0 mm 4 mps 698 mmHg 25%
17:00 +28°C° 0 mm 5 mps 697 mmHg 28%
18:00 +27°C° 0 mm 5 mps 697 mmHg 31%
19:00 +25°C° 0 mm 4 mps 697 mmHg 38%
20:00 +21°C° 0 mm 3 mps 697 mmHg 44%
21:00 +19°C° 0 mm 3 mps 697 mmHg 51%
22:00 +18°C° 0 mm 2 mps 697 mmHg 52%
23:00 +18°C° 0 mm 2 mps 697 mmHg 53%

Pasado mañana, 5 Julio, Domingo

Tiempo Temperatura Precipitaciones Viento Presión Humedad
00:00 +17°C° 0 mm 2 mps 697 mmHg 53%
01:00 +17°C° 0 mm 2 mps 697 mmHg 53%
02:00 +16°C° 0 mm 2 mps 697 mmHg 53%
03:00 +16°C° 0 mm 1 mps 696 mmHg 53%
04:00 +18°C° 0 mm 1 mps 697 mmHg 52%
05:00 +18°C° 0 mm 1 mps 697 mmHg 52%
06:00 +19°C° 0 mm 1 mps 697 mmHg 52%
07:00 +21°C° 0 mm 1 mps 697 mmHg 45%
08:00 +24°C° 0 mm 1 mps 697 mmHg 39%
09:00 +26°C° 0 mm 1 mps 697 mmHg 33%
10:00 +28°C° 0 mm 1 mps 698 mmHg 30%
11:00 +30°C° 0 mm 1 mps 698 mmHg 26%
12:00 +31°C° 0 mm 1 mps 698 mmHg 23%
13:00 +32°C° 0 mm 2 mps 697 mmHg 23%
14:00 +32°C° 0 mm 2 mps 697 mmHg 23%
15:00 +34°C° 0 mm 3 mps 697 mmHg 23%
16:00 +33°C° 0 mm 3 mps 696 mmHg 27%
17:00 +33°C° 0 mm 4 mps 696 mmHg 30%
18:00 +32°C° 0 mm 4 mps 696 mmHg 34%
19:00 +28°C° 0 mm 4 mps 696 mmHg 43%
20:00 +26°C° 0 mm 3 mps 696 mmHg 53%
21:00 +22°C° 0 mm 3 mps 696 mmHg 63%
22:00 +22°C° 0 mm 3 mps 695 mmHg 65%
23:00 +21°C° 0 mm 3 mps 695 mmHg 67%

6 Julio, Lunes

Tiempo Temperatura Precipitaciones Viento Presión Humedad
00:00 +20°C° 0 mm 3 mps 695 mmHg 69%
01:00 +20°C° 0 mm 2 mps 695 mmHg 69%
02:00 +19°C° 0 mm 2 mps 695 mmHg 70%
03:00 +19°C° 0 mm 2 mps 694 mmHg 70%
04:00 +19°C° 0 mm 2 mps 695 mmHg 69%
05:00 +19°C° 0 mm 2 mps 695 mmHg 68%
06:00 +19°C° 0 mm 2 mps 695 mmHg 67%
07:00 +23°C° 0 mm 2 mps 695 mmHg 60%
08:00 +25°C° 0 mm 3 mps 695 mmHg 53%
09:00 +27°C° 0 mm 3 mps 696 mmHg 45%
10:00 +29°C° 0 mm 3 mps 696 mmHg 41%
11:00 +30°C° 0 mm 3 mps 696 mmHg 36%
12:00 +33°C° 0 mm 3 mps 696 mmHg 31%
13:00 +33°C° 0 mm 4 mps 696 mmHg 31%
14:00 +33°C° 0 mm 5 mps 696 mmHg 31%
15:00 +33°C° 0 mm 6 mps 695 mmHg 30%
16:00 +32°C° 0 mm 6 mps 695 mmHg 36%
17:00 +29°C° 0 mm 6 mps 695 mmHg 41%
18:00 +27°C° 0 mm 6 mps 694 mmHg 47%
19:00 +25°C° 0 mm 5 mps 695 mmHg 55%
20:00 +21°C° 0 mm 5 mps 695 mmHg 63%
21:00 +19°C° 0 mm 4 mps 695 mmHg 71%
22:00 +18°C° 0 mm 4 mps 694 mmHg 72%
23:00 +17°C° 0 mm 4 mps 694 mmHg 74%

7 Julio, Martes

Tiempo Temperatura Precipitaciones Viento Presión Humedad
00:00 +17°C° 0 mm 3 mps 694 mmHg 75%
01:00 +16°C° 0 mm 3 mps 694 mmHg 73%
02:00 +16°C° 0 mm 3 mps 694 mmHg 71%
03:00 +16°C° 0 mm 3 mps 693 mmHg 69%
04:00 +16°C° 0 mm 3 mps 693 mmHg 65%
05:00 +16°C° 0 mm 3 mps 693 mmHg 62%
06:00 +16°C° 0 mm 2 mps 693 mmHg 59%
07:00 +19°C° 0 mm 3 mps 694 mmHg 50%
08:00 +22°C° 0 mm 3 mps 694 mmHg 41%
09:00 +25°C° 0 mm 3 mps 694 mmHg 32%
10:00 +27°C° 0 mm 3 mps 694 mmHg 30%
11:00 +29°C° 0 mm 3 mps 694 mmHg 27%
12:00 +31°C° 0 mm 2 mps 694 mmHg 25%
13:00 +33°C° 0 mm 3 mps 694 mmHg 25%
14:00 +33°C° 0 mm 4 mps 694 mmHg 24%
15:00 +34°C° 0 mm 4 mps 693 mmHg 24%
16:00 +33°C° 0 mm 5 mps 693 mmHg 27%
17:00 +32°C° 0 mm 5 mps 693 mmHg 30%
18:00 +30°C° 0 mm 6 mps 693 mmHg 33%
19:00 +27°C° 0 mm 5 mps 693 mmHg 38%
20:00 +25°C° 0 mm 4 mps 693 mmHg 43%
21:00 +21°C° 0 mm 4 mps 693 mmHg 48%
22:00 +21°C° 0 mm 4 mps 693 mmHg 49%
23:00 +20°C° 0 mm 4 mps 693 mmHg 49%

8 Julio, Miércoles

Tiempo Temperatura Precipitaciones Viento Presión Humedad
00:00 +19°C° 0 mm 4 mps 693 mmHg 50%
01:00 +19°C° 0 mm 4 mps 692 mmHg 49%
02:00 +19°C° 0 mm 4 mps 692 mmHg 48%
03:00 +18°C° 0 mm 4 mps 692 mmHg 47%
04:00 +18°C° 0 mm 4 mps 692 mmHg 48%
05:00 +19°C° 0 mm 4 mps 692 mmHg 49%
06:00 +19°C° 0 mm 4 mps 692 mmHg 51%
07:00 +22°C° 0 mm 4 mps 692 mmHg 46%
08:00 +25°C° 0 mm 4 mps 693 mmHg 42%
09:00 +28°C° 0 mm 5 mps 693 mmHg 38%
10:00 +30°C° 0 mm 4 mps 693 mmHg 33%
11:00 +34°C° 0 mm 4 mps 693 mmHg 27%
12:00 +36°C° 0 mm 4 mps 693 mmHg 22%
13:00 +36°C° 0 mm 5 mps 693 mmHg 20%
14:00 +36°C° 0 mm 5 mps 692 mmHg 19%
15:00 +38°C° 0 mm 6 mps 692 mmHg 18%
16:00 +35°C° 0 mm 6 mps 692 mmHg 25%
17:00 +33°C° 0 mm 7 mps 691 mmHg 31%
18:00 +29°C° 0 mm 7 mps 691 mmHg 38%
19:00 +27°C° 0 mm 6 mps 691 mmHg 45%
20:00 +24°C° 0 mm 6 mps 692 mmHg 52%
21:00 +22°C° 0 mm 5 mps 692 mmHg 59%
22:00 +22°C° 0 mm 6 mps 692 mmHg 61%
23:00 +21°C° 0 mm 6 mps 692 mmHg 63%
Mostrar más